User: anonymous   Login
Location: Unspecified
(0.0000°N, 0.0000°E)
Time: 15:07:17
(UTC+00:00)
Language:

USA 8 - Orbit

View from above orbital plane
View from above orbital plane
View from above satellite
View from above satellite

Ground track
Ground track

The orbit data is extracted from the following two-line orbital elements,

1 15543U 85010B   18096.09184037 0.00000000  00000-0  00000-0 0    01
2 15543  17.3269 345.3264 0135458 330.1747  29.0732  0.99812076    01
Epoch (UTC): 06 April 2018 02:12:15
Eccentricity: 0.0135458
inclination: 17.3269°
perigee height: 35342 km
apogee height: 36488 km
right ascension of ascending node: 345.3264°
argument of perigee: 330.1747°
revolutions per day: 0.99812076
mean anomaly at epoch: 29.0732°
orbit number at epoch: 0

The dashed part of the orbit path shows where the satellite is in the earth's shadow,  

DLR